Time,TemperatureF,DewpointF,PressureIn,WindDirection,WindDirectionDegrees,WindSpeedMPH,WindSpeedGustMPH,Humidity,HourlyPrecipIn,Conditions,Clouds,dailyrainin,SoftwareType,DateUTC
2013-07-08 00:02:00,68.0,67.0,30.09,ENE,62,0.0,0.0,97,-99.99,,,-99.99,,2013-07-08 04:02:00,
2013-07-08 00:12:00,68.0,67.0,30.09,ENE,75,0.0,0.0,97,-99.99,,,-99.99,,2013-07-08 04:12:00,
2013-07-08 00:22:00,68.0,67.0,30.08,ENE,75,0.0,0.0,97,-99.99,,,-99.99,,2013-07-08 04:22:00,
2013-07-08 00:33:00,68.0,67.0,30.08,ENE,75,0.0,0.0,97,-99.99,,,-99.99,,2013-07-08 04:33:00,
2013-07-08 00:42:00,68.0,67.0,30.08,ENE,75,0.0,0.0,97,-99.99,,,-99.99,,2013-07-08 04:42:00,
2013-07-08 00:53:00,68.0,67.0,30.08,ENE,75,0.0,0.0,97,-99.99,,,-99.99,,2013-07-08 04:53:00,
2013-07-08 01:01:00,68.0,67.0,30.08,ENE,75,0.0,0.0,97,-99.99,,,-99.99,,2013-07-08 05:01:00,
2013-07-08 01:12:00,68.0,67.0,30.08,ENE,75,0.0,0.0,97,-99.99,,,-99.99,,2013-07-08 05:12:00,
2013-07-08 01:22:00,68.0,67.0,30.09,ENE,75,0.0,0.0,98,-99.99,,,-99.99,,2013-07-08 05:22:00,
2013-07-08 01:33:00,68.0,67.0,30.09,ENE,75,0.0,0.0,98,-99.99,,,-99.99,,2013-07-08 05:33:00,
2013-07-08 01:43:00,68.0,67.0,30.09,ENE,75,0.0,0.0,98,-99.99,,,-99.99,,2013-07-08 05:43:00,
2013-07-08 01:53:00,68.0,67.0,30.09,ENE,75,0.0,0.0,98,-99.99,,,-99.99,,2013-07-08 05:53:00,
2013-07-08 02:01:00,68.0,67.0,30.10,ESE,118,0.0,0.0,98,-99.99,,,-99.99,,2013-07-08 06:01:00,
2013-07-08 02:12:00,68.0,67.0,30.09,ESE,119,0.0,0.0,98,-99.99,,,-99.99,,2013-07-08 06:12:00,
2013-07-08 02:22:00,68.0,67.0,30.09,ESE,119,0.0,0.0,98,-99.99,,,-99.99,,2013-07-08 06:22:00,
2013-07-08 02:34:00,68.0,67.0,30.09,ESE,119,0.0,0.0,98,-99.99,,,-99.99,,2013-07-08 06:34:00,
2013-07-08 02:43:00,68.0,67.0,30.09,ESE,119,0.0,0.0,98,-99.99,,,-99.99,,2013-07-08 06:43:00,
2013-07-08 02:53:00,68.0,67.0,30.09,ESE,119,0.0,0.0,98,-99.99,,,-99.99,,2013-07-08 06:53:00,
2013-07-08 03:02:00,68.0,67.0,30.09,ESE,119,0.0,0.0,98,-99.99,,,-99.99,,2013-07-08 07:02:00,
2013-07-08 03:12:00,67.0,66.0,30.09,ESE,119,0.0,0.0,98,-99.99,,,-99.99,,2013-07-08 07:12:00,
2013-07-08 03:22:00,67.0,66.0,30.09,ESE,118,0.0,0.0,98,-99.99,,,-99.99,,2013-07-08 07:22:00,
2013-07-08 03:34:00,67.0,66.0,30.09,ESE,118,0.0,0.0,98,-99.99,,,-99.99,,2013-07-08 07:34:00,
2013-07-08 03:44:00,67.0,66.0,30.09,ESE,118,0.0,0.0,98,-99.99,,,-99.99,,2013-07-08 07:44:00,
2013-07-08 03:53:00,68.0,67.0,30.08,ESE,121,0.0,0.0,98,-99.99,,,-99.99,,2013-07-08 07:53:00,
2013-07-08 04:22:00,67.0,66.0,30.08,ESE,121,0.0,0.0,98,-99.99,,,-99.99,,2013-07-08 08:22:00,
2013-07-08 04:33:00,67.0,66.0,30.08,ESE,121,0.0,0.0,98,-99.99,,,-99.99,,2013-07-08 08:33:00,
2013-07-08 04:42:00,67.0,66.0,30.08,ESE,121,0.0,0.0,98,-99.99,,,-99.99,,2013-07-08 08:42:00,
2013-07-08 04:53:00,67.0,66.0,30.09,ESE,121,0.0,0.0,98,-99.99,,,-99.99,,2013-07-08 08:53:00,
2013-07-08 05:02:00,67.0,66.0,30.08,ESE,121,0.0,0.0,98,-99.99,,,-99.99,,2013-07-08 09:02:00,
2013-07-08 05:11:00,67.0,66.0,30.08,ESE,118,0.0,0.0,98,-99.99,,,-99.99,,2013-07-08 09:11:00,
2013-07-08 05:22:00,67.0,66.0,30.08,ESE,118,0.0,0.0,98,-99.99,,,-99.99,,2013-07-08 09:22:00,
2013-07-08 05:34:00,67.0,66.0,30.09,ESE,119,0.0,0.0,98,-99.99,,,-99.99,,2013-07-08 09:34:00,
2013-07-08 05:43:00,67.0,66.0,30.09,ESE,119,0.0,0.0,98,-99.99,,,-99.99,,2013-07-08 09:43:00,
2013-07-08 05:52:00,66.0,65.0,30.09,ESE,119,0.0,0.0,98,-99.99,,,-99.99,,2013-07-08 09:52:00,
2013-07-08 06:02:00,66.0,65.0,30.09,ESE,119,0.0,0.0,98,-99.99,,,-99.99,,2013-07-08 10:02:00,
2013-07-08 06:11:00,67.0,67.0,30.10,ENE,70,0.0,0.0,99,-99.99,,,-99.99,,2013-07-08 10:11:00,
2013-07-08 06:22:00,67.0,67.0,30.10,ENE,70,0.0,0.0,99,-99.99,,,-99.99,,2013-07-08 10:22:00,
2013-07-08 06:34:00,67.0,66.0,30.10,ENE,73,1.0,0.0,98,-99.99,,,-99.99,,2013-07-08 10:34:00,
2013-07-08 06:43:00,67.0,66.0,30.10,ENE,73,1.0,0.0,98,-99.99,,,-99.99,,2013-07-08 10:43:00,
2013-07-08 06:53:00,67.0,66.0,30.10,ENE,75,1.0,0.0,98,-99.99,,,-99.99,,2013-07-08 10:53:00,
2013-07-08 07:02:00,67.0,66.0,30.10,ENE,75,1.0,0.0,98,-99.99,,,-99.99,,2013-07-08 11:02:00,
2013-07-08 07:11:00,67.0,66.0,30.10,NE,56,0.0,0.0,97,-99.99,,,-99.99,,2013-07-08 11:11:00,
2013-07-08 07:23:00,67.0,66.0,30.10,NE,56,0.0,0.0,97,-99.99,,,-99.99,,2013-07-08 11:23:00,
2013-07-08 07:33:00,67.0,66.0,30.10,NE,56,0.0,0.0,97,-99.99,,,-99.99,,2013-07-08 11:33:00,
2013-07-08 07:53:00,68.0,67.0,30.11,ESE,103,0.0,0.0,96,-99.99,,,-99.99,,2013-07-08 11:53:00,
2013-07-08 08:02:00,68.0,67.0,30.11,East,86,1.0,0.0,95,-99.99,,,-99.99,,2013-07-08 12:02:00,
2013-07-08 08:11:00,68.0,67.0,30.11,East,86,1.0,0.0,95,-99.99,,,-99.99,,2013-07-08 12:11:00,
2013-07-08 08:22:00,69.0,67.0,30.12,ENE,72,1.0,0.0,94,-99.99,,,-99.99,,2013-07-08 12:22:00,
2013-07-08 08:34:00,69.0,67.0,30.12,ENE,72,1.0,0.0,94,-99.99,,,-99.99,,2013-07-08 12:34:00,
2013-07-08 08:53:00,69.0,67.0,30.12,ENE,72,1.0,0.0,94,-99.99,,,-99.99,,2013-07-08 12:53:00,
2013-07-08 09:02:00,71.0,68.0,30.12,ENE,77,0.0,0.0,90,-99.99,,,-99.99,,2013-07-08 13:02:00,
2013-07-08 09:11:00,71.0,68.0,30.12,ENE,77,0.0,0.0,90,-99.99,,,-99.99,,2013-07-08 13:11:00,
2013-07-08 09:22:00,72.0,69.0,30.12,ENE,67,3.0,0.0,89,-99.99,,,-99.99,,2013-07-08 13:22:00,
2013-07-08 09:33:00,72.0,69.0,30.12,ENE,67,3.0,0.0,89,-99.99,,,-99.99,,2013-07-08 13:33:00,
2013-07-08 09:42:00,73.0,69.0,30.12,ESE,111,2.0,0.0,88,-99.99,,,-99.99,,2013-07-08 13:42:00,
2013-07-08 11:43:00,77.0,68.0,30.13,ESE,115,0.0,0.0,75,-99.99,,,-99.99,,2013-07-08 15:43:00,
2013-07-08 11:53:00,77.0,68.0,30.13,ESE,115,0.0,0.0,75,-99.99,,,-99.99,,2013-07-08 15:53:00,
2013-07-08 12:22:00,78.0,67.0,30.13,SSE,154,0.0,0.0,69,-99.99,,,-99.99,,2013-07-08 16:22:00,
2013-07-08 12:43:00,80.0,68.0,30.13,ESE,115,1.0,0.0,68,-99.99,,,-99.99,,2013-07-08 16:43:00,
2013-07-08 12:58:00,81.0,69.0,30.13,SE,135,0.0,0.0,68,-99.99,,,-99.99,,2013-07-08 16:58:00,
2013-07-08 13:28:00,81.0,68.0,30.13,NW,305,2.0,0.0,65,-99.99,,,-99.99,,2013-07-08 17:28:00,
2013-07-08 20:10:00,85.0,70.0,30.05,SSW,195,0.0,0.0,60,-99.99,,,-99.99,,2013-07-09 00:10:00,
2013-07-08 20:59:00,79.0,70.0,30.06,SSW,195,0.0,0.0,74,-99.99,,,-99.99,,2013-07-09 00:59:00,
2013-07-08 21:09:00,78.0,70.0,30.06,SSW,194,0.0,0.0,76,-99.99,,,-99.99,,2013-07-09 01:09:00,
2013-07-08 21:23:00,77.0,71.0,30.07,SSW,195,0.0,0.0,82,-99.99,,,-99.99,,2013-07-09 01:23:00,
2013-07-08 22:26:00,-999.0,-99.9,30.08,SSW,194,0.0,0.0,84,-99.99,,,-99.99,,2013-07-09 02:26:00,